Aérodrome :
LOGIN :

S'inscrire | Disclaimer

   EN    FR    IT 

 










Légende :    VFR   VFR Marginal   IFR   IFR Intensif   IFR Très Intensif
Visi : 
Plafond : 
>= 8 km
>= 3000ft
5 à 8 km
1000 à 3000 ft
1500m à 5 km
500 à 1000 ft
800 à 1500m
200 à 500 ft
< 800m
< 200 ft
Symboles :   Orages  Brouillard  Fortes neiges  Fortes précipitations  Vent > 20 kt
SIGMETs :   Divers  Orages  Givrage  Turbulence  Onde Orograph.  Cendres Volcan.






- Altitude de l'aérodrome : 11 ft
- Code IATA : PVK


LGPZ - Aktion Lefkada Preveza

DERNIER METAR :
  • 012050Z 24007KT 9999 FEW025 BKN070 08/05 Q1011

METARs EXPIRÉS :
  • 011950Z 36005KT 9999 FEW025 BKN070 08/05 Q1012
  • 011850Z 32006KT 9999 SCT025 BKN070 09/05 Q1012

TAF TAF LGPZ
Valide du 01 à 18h jusqu'au 02 à 18h UTC


011700Z 0118/0218 28015KT 9000 SCT020 BKN070
PROB40
TEMPO 0118/0121 5000 SHRA FEW018TCU SCT020 OVC080
BECMG 0200/0202 VRB05KT



MET'MAP, la Météo Aéronautique d'un coup d'oeil ! - Copyright ORBIFLY Décembre 2007 - Disclaimer

ORBIFLY MET'MAP TEAM :

Programmation & Développement : Alexandra Zaïnal
Sur une idée originale de : Baudouin d'Aumeries
Assistance à la programmation : Marc-Olivier Méhu
Soutien technique & logistique : Manuel Goepfert

Contact : metmap@orbifly.com




SOURCES & CREDITS :

   NOAA